Volver al catálogo

PRAETORIAN SDA_609

ActivoMilitarPO
NORAD 65572·PAYLOAD·🇺🇸 United States

Lanzado Sep 10, 2025 desde Vandenberg Space Force Base

Loading…

Próximos Pases (próximas 24 horas)

TLE

ActualizadoSource: Space-Track

Época: Sep 14, 2026, 01:27 UTC

1 65572U 25203H   26257.06081915  .00000278  00000-0  23903-3 0  9996
2 65572  81.3020 288.5050 0005969 318.9627  41.1079 13.84216121 50998

Sigue PRAETORIAN SDA_609 en tiempo real con AllMySat

Download on the App Store